TITAN 3C TRANSTAGE DEB

基本信息
目录编号:
33513
目录名称:
TITAN 3C TRANSTAGE DEB
国际标识:
1968-081P
轨道中心:
EARTH
物体状态:
在轨
发射日期:
1968-09-26 UTC
轨道信息
数据来源: 国际轨道数据
星历时间: 2026-07-13T20:20:37+0800
半长轴: 41852.325km
偏心率: 0.0084474
轨道倾角: 2.097°
近地点辐角: 287.542°
升交点赤经: 50.956°
平近点角: 8.618°
近地点: 35120.644km
远地点: 35827.732km
周期: 1420.166分钟
每日圈数: 1.013966
详细信息
发射场:
AFETR
轨道高度:
MEO
数据来源:
AOE Integration Group
参考系:
TEME
时间系统:
UTC
历元类型:
SGP4
2D轨道图
3D轨道图
轨道高度分析图
轨道倾角分析图
轨道综合分析图
查看轨道综合分析图